Location: Colle Santa Colomba
(42.0333°N, 12.5667°E)
Time: 22:15:49
(UTC+00:00)

COSMOS 2428 - Pass Details

Date: 25 October 2021
Orbit: 844 x 857 km, 70.9° (Epoch: 05 December)

Event Time Altitude Azimuth Distance (km) Brightness Sun altitude
Rises 17:28:51 0° 162° (SSE) 3,388 5.7 -14.7°
Reaches altitude 10° 17:31:51 10° 147° (SSE) 2,458 4.8 -15.3°
Enters shadow 17:34:43 19° 117° (ESE) 1,884 4.0 -15.8°
